GIA6510 WAHI-OEMA

Flight info

Callsign GIA6510
Flight time N/A
Altitude 34000
Route CLP W17 BND W11 RIMTI M766 ODIRU/N0478F360 M766 KAT P570 TVM UL425 ENPOL/N0471F380 UL425 ASPUX L425 GOBRO DCT PURDA/N0467F400 DCT ALNUG DCT PUSON L883 KITUB Y511 ELONU
Aircraft A333/H-SDE1E2E3FGHIJ4J5M1P2RWXYZ/LB1D1

Departure

Time N/A
Airport Yogyakarta International Airport (WAHI)

Arrival

Time 2026-05-03 21:56
Airport Prince Mohammad Bin Abdulaziz Airport (OEMA)
Time Latitude Longitude Altitude Speed Heading
2026-05-03 20:15 22.05714 48.56911 37967 ft 441 kts 290°
2026-05-03 20:15 22.07939 48.50740 37978 ft 442 kts 290°
2026-05-03 20:16 22.10161 48.44567 37961 ft 442 kts 290°
2026-05-03 20:16 22.12385 48.38383 37960 ft 442 kts 290°
2026-05-03 20:17 22.14606 48.32195 37962 ft 442 kts 290°
2026-05-03 20:17 22.16824 48.26010 37959 ft 442 kts 290°
2026-05-03 20:18 22.19042 48.19816 37956 ft 443 kts 290°
2026-05-03 20:18 22.21258 48.13618 37961 ft 443 kts 290°
2026-05-03 20:19 22.23470 48.07416 37961 ft 443 kts 290°
2026-05-03 20:19 22.25670 48.01253 37969 ft 443 kts 290°
2026-05-03 20:20 22.27880 47.95051 37961 ft 443 kts 290°
2026-05-03 20:20 22.30087 47.88845 37956 ft 442 kts 290°
2026-05-03 20:21 22.32289 47.82644 37961 ft 442 kts 290°
2026-05-03 20:21 22.34490 47.76438 37964 ft 442 kts 290°
2026-05-03 20:22 22.36686 47.70232 37960 ft 442 kts 290°
2026-05-03 20:22 22.38876 47.64036 37960 ft 442 kts 290°
2026-05-03 20:23 22.41068 47.57831 37966 ft 442 kts 289°
2026-05-03 20:23 22.43255 47.51628 37989 ft 441 kts 289°
2026-05-03 20:24 22.45438 47.45428 37990 ft 441 kts 289°
2026-05-03 20:24 22.47619 47.39228 37989 ft 441 kts 289°
2026-05-03 20:25 22.49795 47.33031 37991 ft 441 kts 289°
2026-05-03 20:25 22.51970 47.26831 37990 ft 440 kts 289°
2026-05-03 20:26 22.54139 47.20639 37989 ft 441 kts 289°
2026-05-03 20:26 22.56309 47.14444 37990 ft 440 kts 289°
2026-05-03 20:27 22.58471 47.08251 37989 ft 440 kts 289°
2026-05-03 20:27 22.60633 47.02058 37990 ft 440 kts 289°
2026-05-03 20:28 22.62790 46.95866 37990 ft 440 kts 289°
2026-05-03 20:28 22.64945 46.89670 37990 ft 440 kts 289°
2026-05-03 20:29 22.67094 46.83475 37989 ft 439 kts 289°
2026-05-03 20:29 22.69245 46.77278 37989 ft 440 kts 289°
2026-05-03 20:30 22.71394 46.71080 37990 ft 440 kts 289°
2026-05-03 20:30 22.73538 46.64884 37990 ft 439 kts 289°
2026-05-03 20:31 22.75680 46.58681 37990 ft 440 kts 289°
2026-05-03 20:31 22.77821 46.52476 37990 ft 439 kts 289°
2026-05-03 20:32 22.79956 46.46274 37989 ft 439 kts 289°
2026-05-03 20:32 22.81918 46.40018 37990 ft 438 kts 281°
2026-05-03 20:33 22.82759 46.33497 37990 ft 437 kts 275°
2026-05-03 20:33 22.83272 46.26934 37989 ft 437 kts 274°
2026-05-03 20:34 22.83724 46.20372 37990 ft 436 kts 274°
2026-05-03 20:34 22.84182 46.13811 37989 ft 437 kts 274°
2026-05-03 20:35 22.84653 46.07246 37988 ft 437 kts 274°
2026-05-03 20:35 22.85128 46.00678 37988 ft 437 kts 274°
2026-05-03 20:36 22.85601 45.94114 37990 ft 437 kts 274°
2026-05-03 20:36 22.86072 45.87548 37990 ft 437 kts 274°
2026-05-03 20:37 22.86539 45.80990 37998 ft 436 kts 274°
2026-05-03 20:37 22.87004 45.74429 37999 ft 436 kts 273°
2026-05-03 20:38 22.87463 45.67870 37999 ft 436 kts 273°
2026-05-03 20:38 22.87916 45.61357 37999 ft 436 kts 273°
2026-05-03 20:39 22.88371 45.54798 38000 ft 436 kts 273°
2026-05-03 20:39 22.88824 45.48244 38008 ft 436 kts 273°
2026-05-03 20:40 22.89275 45.41684 38008 ft 436 kts 273°
2026-05-03 20:40 22.89726 45.35081 38008 ft 436 kts 273°
2026-05-03 20:41 22.90169 45.28567 38008 ft 436 kts 273°
2026-05-03 20:41 22.90610 45.22011 38008 ft 436 kts 273°
2026-05-03 20:42 22.91051 45.15411 38016 ft 436 kts 273°
2026-05-03 20:42 22.91485 45.08857 38017 ft 435 kts 273°
2026-05-03 20:43 22.91920 45.02306 38018 ft 436 kts 273°
2026-05-03 20:43 22.92351 44.95750 38028 ft 436 kts 273°
2026-05-03 20:44 22.92778 44.89197 38028 ft 436 kts 273°
2026-05-03 20:44 22.93201 44.82640 38024 ft 436 kts 273°
2026-05-03 20:45 22.93624 44.76085 38027 ft 436 kts 273°
2026-05-03 20:45 22.94064 44.69530 38024 ft 436 kts 276°
2026-05-03 20:46 22.95433 44.63116 38029 ft 437 kts 285°
2026-05-03 20:46 22.97287 44.56876 38027 ft 438 kts 287°
2026-05-03 20:47 22.99247 44.50615 38030 ft 438 kts 287°
2026-05-03 20:47 23.01205 44.44350 38024 ft 438 kts 287°
2026-05-03 20:48 23.03156 44.38044 38027 ft 438 kts 287°
2026-05-03 20:48 23.05084 44.31768 38030 ft 438 kts 287°
2026-05-03 20:49 23.07007 44.25495 38036 ft 437 kts 287°
2026-05-03 20:49 23.08926 44.19225 38036 ft 437 kts 287°
2026-05-03 20:50 23.10831 44.12998 38035 ft 437 kts 287°
2026-05-03 20:50 23.12744 44.06723 38024 ft 438 kts 286°
2026-05-03 20:51 23.14657 44.00448 38030 ft 437 kts 287°
2026-05-03 20:51 23.16563 43.94181 38031 ft 437 kts 286°
2026-05-03 20:52 23.18470 43.87906 38028 ft 437 kts 286°
2026-05-03 20:52 23.20374 43.81634 38024 ft 437 kts 286°
2026-05-03 20:53 23.22275 43.75357 38027 ft 437 kts 286°
2026-05-03 20:53 23.24173 43.69081 38036 ft 437 kts 286°
2026-05-03 20:54 23.26068 43.62803 38036 ft 437 kts 286°
2026-05-03 20:54 23.28905 43.53387 38036 ft 437 kts 286°
2026-05-03 20:55 23.30795 43.47101 38036 ft 437 kts 286°
2026-05-03 20:55 23.32683 43.40813 38045 ft 437 kts 286°
2026-05-03 20:56 23.34570 43.34529 38054 ft 437 kts 286°
2026-05-03 20:56 23.36454 43.28240 38055 ft 437 kts 286°
2026-05-03 20:57 23.38016 43.23014 38054 ft 437 kts 286°
2026-05-03 20:57 23.39893 43.16724 38055 ft 437 kts 286°
2026-05-03 20:58 23.41765 43.10433 38054 ft 437 kts 286°
2026-05-03 20:58 23.43632 43.04140 38054 ft 437 kts 286°
2026-05-03 20:59 23.45498 42.97840 38054 ft 437 kts 285°
2026-05-03 20:59 23.47362 42.91541 38054 ft 437 kts 285°
2026-05-03 21:00 23.48923 42.86257 38054 ft 437 kts 285°
2026-05-03 21:00 23.51081 42.78939 38057 ft 437 kts 285°
2026-05-03 21:01 23.52938 42.72637 38064 ft 437 kts 285°
2026-05-03 21:01 23.54795 42.66328 38064 ft 437 kts 285°
2026-05-03 21:02 23.56648 42.60019 38063 ft 437 kts 285°
2026-05-03 21:02 23.58501 42.53715 38082 ft 437 kts 285°
2026-05-03 21:03 23.60351 42.47410 38082 ft 436 kts 285°
2026-05-03 21:03 23.62197 42.41109 38082 ft 436 kts 285°
2026-05-03 21:04 23.64040 42.34801 38082 ft 436 kts 285°
2026-05-03 21:04 23.65876 42.28497 38082 ft 436 kts 285°
2026-05-03 21:05 23.67707 42.22191 38081 ft 436 kts 285°
2026-05-03 21:05 23.69536 42.15872 38082 ft 437 kts 285°
2026-05-03 21:06 23.71363 42.09560 38082 ft 436 kts 285°
2026-05-03 21:06 23.73184 42.03257 38082 ft 436 kts 285°
2026-05-03 21:07 23.75002 41.96944 38082 ft 436 kts 285°
2026-05-03 21:07 23.76825 41.90633 38082 ft 436 kts 285°
2026-05-03 21:08 23.78645 41.84329 38081 ft 435 kts 285°
2026-05-03 21:08 23.80463 41.78023 38081 ft 435 kts 285°
2026-05-03 21:09 23.82275 41.71721 38082 ft 435 kts 285°
2026-05-03 21:09 23.84084 41.65410 38081 ft 435 kts 285°
2026-05-03 21:10 23.85889 41.59098 38089 ft 435 kts 285°
2026-05-03 21:10 23.87689 41.52789 38088 ft 435 kts 284°
2026-05-03 21:11 23.89482 41.46476 38087 ft 435 kts 285°
2026-05-03 21:11 23.91272 41.40162 38091 ft 435 kts 285°
2026-05-03 21:12 23.93064 41.33842 38092 ft 435 kts 284°
2026-05-03 21:12 23.94853 41.27522 38081 ft 435 kts 285°
2026-05-03 21:13 23.96644 41.21200 38081 ft 435 kts 284°
2026-05-03 21:13 23.98429 41.14885 38082 ft 435 kts 284°
2026-05-03 21:14 24.00209 41.08574 38073 ft 435 kts 284°
2026-05-03 21:14 24.01987 41.02262 38072 ft 433 kts 284°
2026-05-03 21:15 24.03726 40.96073 38072 ft 432 kts 284°
2026-05-03 21:15 24.05487 40.89794 38065 ft 431 kts 284°
2026-05-03 21:16 24.07244 40.83526 38061 ft 431 kts 284°
2026-05-03 21:16 24.08996 40.77262 38054 ft 430 kts 284°
2026-05-03 21:17 24.10452 40.72054 38054 ft 430 kts 284°
2026-05-03 21:17 24.12480 40.64785 38054 ft 430 kts 284°
2026-05-03 21:18 24.14224 40.58523 38047 ft 430 kts 284°
2026-05-03 21:18 24.15931 40.52253 38043 ft 429 kts 281°
2026-05-03 21:19 24.16881 40.45844 38009 ft 426 kts 275°
2026-05-03 21:19 24.17640 40.39402 38008 ft 426 kts 275°
2026-05-03 21:20 24.18402 40.32964 38008 ft 427 kts 275°
2026-05-03 21:20 24.19165 40.26522 38009 ft 426 kts 275°
2026-05-03 21:21 24.19928 40.20087 38008 ft 426 kts 275°
2026-05-03 21:21 24.20689 40.13650 38008 ft 426 kts 275°
2026-05-03 21:22 24.21435 40.07338 38012 ft 405 kts 275°
2026-05-03 21:22 24.22139 40.01345 38019 ft 393 kts 275°
2026-05-03 21:23 24.22829 39.95428 38018 ft 393 kts 275°
2026-05-03 21:23 24.23520 39.89508 38017 ft 393 kts 275°
2026-05-03 21:24 24.24959 39.83697 38018 ft 399 kts 292°
2026-05-03 21:24 24.26364 39.81067 38017 ft 403 kts 303°
2026-05-03 21:24 24.28226 39.78751 38019 ft 408 kts 314°
2026-05-03 21:25 24.30495 39.76856 38018 ft 414 kts 325°
2026-05-03 21:25 24.33102 39.75460 38019 ft 421 kts 336°
2026-05-03 21:25 24.35953 39.74629 38017 ft 428 kts 347°
2026-05-03 21:25 24.38917 39.74426 38018 ft 434 kts 359°
2026-05-03 21:26 24.41871 39.74881 38017 ft 440 kts 11°
2026-05-03 21:26 24.44743 39.76010 38017 ft 445 kts 24°
2026-05-03 21:26 24.47364 39.77824 38016 ft 448 kts 38°
2026-05-03 21:26 24.49577 39.80250 38018 ft 451 kts 51°
2026-05-03 21:27 24.51257 39.83051 38020 ft 452 kts 63°
2026-05-03 21:27 24.52429 39.86250 38015 ft 452 kts 76°
2026-05-03 21:27 24.52972 39.89611 38018 ft 450 kts 89°
2026-05-03 21:27 24.52904 39.93021 38019 ft 448 kts 98°
2026-05-03 21:28 24.52241 39.99787 38018 ft 450 kts 98°
2026-05-03 21:28 24.51569 40.06605 38016 ft 447 kts 104°
2026-05-03 21:29 24.50688 40.09852 38018 ft 441 kts 118°
2026-05-03 21:29 24.49183 40.12741 38021 ft 433 kts 131°
2026-05-03 21:29 24.47204 40.15150 37927 ft 432 kts 142°
2026-05-03 21:29 24.44893 40.17310 37678 ft 442 kts 145°
2026-05-03 21:30 24.42401 40.19349 37418 ft 451 kts 151°
2026-05-03 21:30 24.39634 40.21012 37157 ft 456 kts 161°
2026-05-03 21:30 24.36626 40.21971 36896 ft 449 kts 177°
2026-05-03 21:30 24.33538 40.21960 36654 ft 438 kts 193°
2026-05-03 21:31 24.30664 40.20980 36409 ft 428 kts 209°
2026-05-03 21:31 24.28196 40.19254 36160 ft 416 kts 222°
2026-05-03 21:31 24.26192 40.17040 35911 ft 407 kts 232°
2026-05-03 21:31 24.24597 40.14514 35666 ft 399 kts 241°
2026-05-03 21:32 24.23384 40.11810 35410 ft 391 kts 248°
2026-05-03 21:32 24.22568 40.09147 35035 ft 380 kts 255°
2026-05-03 21:32 24.22060 40.06329 34386 ft 376 kts 262°
2026-05-03 21:32 24.21902 40.03487 33736 ft 372 kts 269°
2026-05-03 21:33 24.22098 40.00676 33076 ft 369 kts 275°
2026-05-03 21:33 24.22452 39.97903 32391 ft 366 kts 276°
2026-05-03 21:33 24.22810 39.95157 31710 ft 362 kts 275°
2026-05-03 21:33 24.23148 39.92435 31026 ft 359 kts 275°
2026-05-03 21:34 24.23471 39.89735 30324 ft 356 kts 275°
2026-05-03 21:34 24.23917 39.87036 29230 ft 366 kts 282°
2026-05-03 21:34 24.24810 39.84367 27985 ft 381 kts 294°
2026-05-03 21:34 24.26249 39.81914 26719 ft 395 kts 307°
2026-05-03 21:35 24.28264 39.79799 25417 ft 408 kts 319°
2026-05-03 21:35 24.30575 39.78021 24676 ft 402 kts 327°
2026-05-03 21:35 24.33048 39.76717 24311 ft 387 kts 338°
2026-05-03 21:35 24.35605 39.76004 24041 ft 373 kts 350°
2026-05-03 21:36 24.38139 39.76002 23774 ft 359 kts
2026-05-03 21:36 24.40530 39.76599 23546 ft 345 kts 13°
2026-05-03 21:36 24.42792 39.77307 23235 ft 333 kts 14°
2026-05-03 21:36 24.44966 39.78016 22825 ft 326 kts 15°
2026-05-03 21:37 24.47150 39.78729 22049 ft 330 kts 14°
2026-05-03 21:37 24.49351 39.79445 21299 ft 334 kts 15°
2026-05-03 21:37 24.51573 39.80167 20648 ft 332 kts 15°
2026-05-03 21:37 24.53781 39.80884 20072 ft 329 kts 15°
2026-05-03 21:38 24.55981 39.81511 19481 ft 324 kts
2026-05-03 21:38 24.58204 39.81416 18878 ft 318 kts 349°
2026-05-03 21:38 24.60369 39.80988 18306 ft 314 kts 347°
2026-05-03 21:38 24.62501 39.80516 17731 ft 311 kts 346°
2026-05-03 21:39 24.64583 39.80054 17154 ft 308 kts 347°
2026-05-03 21:39 24.66675 39.79598 16572 ft 305 kts 347°
2026-05-03 21:39 24.68749 39.79150 16000 ft 302 kts 347°
2026-05-03 21:39 24.70802 39.78710 15425 ft 299 kts 347°
2026-05-03 21:40 24.72837 39.78274 14845 ft 297 kts 348°
2026-05-03 21:40 24.74868 39.77841 14456 ft 297 kts 348°
2026-05-03 21:40 24.76891 39.77411 14162 ft 294 kts 348°
2026-05-03 21:40 24.78898 39.76984 13863 ft 292 kts 348°
2026-05-03 21:41 24.80887 39.76558 13553 ft 290 kts 348°
2026-05-03 21:41 24.82869 39.76149 13218 ft 289 kts 351°
2026-05-03 21:41 24.84225 39.76071 12983 ft 289 kts
2026-05-03 21:41 24.86679 39.77073 12509 ft 288 kts 39°
2026-05-03 21:42 24.87586 39.78146 12273 ft 287 kts 57°
2026-05-03 21:42 24.88307 39.80878 11821 ft 283 kts 93°
2026-05-03 21:42 24.88067 39.82309 11590 ft 281 kts 111°
2026-05-03 21:42 24.87004 39.84087 11221 ft 281 kts 138°
2026-05-03 21:43 24.85345 39.85175 10862 ft 279 kts 162°
2026-05-03 21:43 24.83462 39.85678 10509 ft 278 kts 170°
2026-05-03 21:43 24.81553 39.86042 10169 ft 278 kts 171°
2026-05-03 21:43 24.79649 39.86399 9813 ft 277 kts 171°
2026-05-03 21:44 24.77746 39.86745 9421 ft 277 kts 173°
2026-05-03 21:44 24.75854 39.86765 9036 ft 276 kts 192°
2026-05-03 21:44 24.74087 39.85983 8668 ft 273 kts 217°
2026-05-03 21:44 24.72860 39.84476 8337 ft 268 kts 244°
2026-05-03 21:45 24.72367 39.82531 7997 ft 265 kts 269°
2026-05-03 21:45 24.72669 39.80564 7663 ft 261 kts 293°
2026-05-03 21:45 24.73683 39.78924 7319 ft 261 kts 317°
2026-05-03 21:45 24.75221 39.77901 7013 ft 260 kts 340°
2026-05-03 21:46 24.76970 39.77398 6679 ft 259 kts 347°
2026-05-03 21:46 24.78733 39.77017 6335 ft 257 kts 348°
2026-05-03 21:46 24.80471 39.76647 6179 ft 256 kts 347°
2026-05-03 21:46 24.81821 39.76351 6157 ft 257 kts 347°
2026-05-03 21:47 24.83550 39.75979 6156 ft 256 kts 348°
2026-05-03 21:47 24.85300 39.75609 6155 ft 256 kts 348°
2026-05-03 21:47 24.87052 39.75241 6157 ft 257 kts 348°
2026-05-03 21:47 24.88806 39.74873 6158 ft 256 kts 348°
2026-05-03 21:48 24.90527 39.74415 6157 ft 255 kts 337°
2026-05-03 21:48 24.91929 39.73287 6166 ft 252 kts 306°
2026-05-03 21:48 24.92496 39.71499 6164 ft 251 kts 271°
2026-05-03 21:48 24.92291 39.69577 6166 ft 255 kts 259°
2026-05-03 21:49 24.91901 39.67665 6156 ft 256 kts 258°
2026-05-03 21:49 24.91411 39.65782 6143 ft 257 kts 244°
2026-05-03 21:49 24.90191 39.64388 6149 ft 258 kts 208°
2026-05-03 21:49 24.88446 39.63891 6149 ft 262 kts 184°
2026-05-03 21:50 24.86783 39.64020 6149 ft 251 kts 171°
2026-05-03 21:50 24.85096 39.64394 6151 ft 245 kts 169°
2026-05-03 21:50 24.83427 39.64763 6155 ft 245 kts 170°
2026-05-03 21:50 24.81755 39.65141 6161 ft 245 kts 169°
2026-05-03 21:51 24.80083 39.65522 6156 ft 245 kts 169°
2026-05-03 21:51 24.78416 39.65898 6142 ft 244 kts 169°
2026-05-03 21:51 24.76746 39.66263 5995 ft 245 kts 171°
2026-05-03 21:51 24.75102 39.66608 5721 ft 242 kts 171°
2026-05-03 21:52 24.73455 39.66953 5348 ft 239 kts 170°
2026-05-03 21:52 24.71879 39.67290 4991 ft 224 kts 170°
2026-05-03 21:52 24.70401 39.67607 4672 ft 209 kts 170°
2026-05-03 21:52 24.69029 39.67901 4400 ft 193 kts 169°
2026-05-03 21:53 24.67776 39.68168 4166 ft 175 kts 169°
2026-05-03 21:53 24.66624 39.68413 3933 ft 162 kts 169°
2026-05-03 21:53 24.65564 39.68640 3728 ft 149 kts 169°
2026-05-03 21:53 24.64568 39.68853 3535 ft 145 kts 169°
2026-05-03 21:54 24.63571 39.69066 3358 ft 145 kts 169°
2026-05-03 21:54 24.62578 39.69279 3150 ft 145 kts 168°
2026-05-03 21:54 24.61583 39.69490 2935 ft 146 kts 169°
2026-05-03 21:54 24.60591 39.69699 2747 ft 145 kts 169°
2026-05-03 21:55 24.59598 39.69913 2495 ft 146 kts 167°
2026-05-03 21:55 24.58611 39.70133 2305 ft 143 kts 170°
2026-05-03 21:55 24.57632 39.70340 2126 ft 143 kts 169°
2026-05-03 21:55 24.56695 39.70544 2072 ft 121 kts 170°
2026-05-03 21:56 24.56060 39.70668 2071 ft 66 kts 169°
2026-05-03 21:56 24.55654 39.70755 2071 ft 35 kts 169°
2026-05-03 21:56 24.55478 39.70794 2072 ft 20 kts 168°
2026-05-03 21:56 24.55356 39.70847 2072 ft 18 kts 152°
2026-05-03 21:57 24.55260 39.70921 2073 ft 7 kts 141°
2026-05-03 21:57 24.55252 39.70927 2073 ft 1 kts 141°
2026-05-03 21:57 24.55246 39.70933 2073 ft 2 kts 140°
2026-05-03 21:57 24.55231 39.70947 2073 ft 4 kts 139°
2026-05-03 21:58 24.55213 39.70981 2073 ft 8 kts 110°
2026-05-03 21:58 24.55215 39.71038 2068 ft 7 kts 81°
2026-05-03 21:58 24.55224 39.71097 2071 ft 8 kts 79°
2026-05-03 21:58 24.55236 39.71164 2070 ft 9 kts 79°
2026-05-03 21:59 24.55268 39.71214 2069 ft 7 kts 19°
2026-05-03 21:59 24.55304 39.71219 2074 ft 3 kts 25°
2026-05-03 21:59 24.55314 39.71235 2074 ft 4 kts 57°
2026-05-03 21:59 24.55323 39.71263 2074 ft 3 kts 73°
2026-05-03 22:00 24.55328 39.71291 2071 ft 5 kts 80°
2026-05-03 22:00 24.55332 39.71318 2072 ft 0 kts 79°